STARLINK-1114 (44927 NORAD) Tracking and Keplerian Element Data

This shows tracking and keplerian element data for the satellite.

Feedback or suggestion? Click here.




ElementValue
Catalog44927
NameSTARLINK-1114
Epoch Orbit716
Epoch Day53.25001157
Epoch Year2020
RAAN175.8922
Inclination52.9978
Eccentricity0.0001483
Argument of Perigee71.8776
Mean Anonmoly203.1402
Mean Motion15.05738266
Decay Rate-0.0003327
L11 44927U 20001P 20053.25001157 -.00033270 00000-0 -22652-2 0 9996
L22 44927 52.9978 175.8922 0001483 71.8776 203.1402 15.05738266 7163

Live tracking and technical data element details for STARLINK-1114 (NORAD 44927). STARLINK-1114 can be tracked NOW for your location showing map with azimuth and elevation plus other details from your city location.

Track the satellite on the map from your city or location and see movement details for azimuth, elevation, latitude, longitude, range, height, and movement on the map or in text.







IsCatalogInMostPopularTable: catalog: 44927, numindb: 15
Update: records affected: 1



GetName: 44927 STARLINK-1114

Hit Count: updated at: Wed, 26 Feb 2020 16:57:19 GMT